Location: Corralito
(10.2667°N, 66.9500°W)
Time: 17:24:35
(UTC+00:00)

CZ-4B DEB - Pass Details

Date: 08 December 2023
Orbit: 838 x 858 km, 99.0° (Epoch: 28 February)

Event Time Altitude Azimuth Distance (km) Brightness Sun altitude
Rises 23:06:54 0° 145° (SE) 3,411 7.2 -14.7°
Reaches altitude 10° 23:09:32 10° 134° (SE) 2,478 6.4 -15.3°
Maximum altitude 23:14:15 30° 75° (ENE) 1,500 4.9 -16.4°
Enters shadow 23:17:35 17° 25° (NNE) 2,057 5.8 -17.2°
